Weather History for Dillon, MT

Change the Weather History Date:

Thursday, November 1, 2012

  Actual Average Record
Temperature  
Mean Temperature 47 °F 38 °F  
Max Temperature 59 °F 50 °F 71 °F (1965)
Min Temperature 35 °F 26 °F -8 °F (2002)
Degree Days  
Heating Degree Days 18    
Month to date heating degree days 18  
Since 1 July heating degree days 884  
Cooling Degree Days 0    
Month to date cooling degree days 0  
Year to date cooling degree days 242  
Moisture  
Dew Point 29 °F    
Average Humidity 56    
Maximum Humidity 79    
Minimum Humidity 33    
Precipitation  
Precipitation T in 0.02 in 0.13 in (1991)
Month to date precipitation T 0.02  
Year to date precipitation 5.82 9.95  
Snow  
Snow 0.00 in - - ()
Snow Depth 0.00 in    
Sea Level Pressure  
Sea Level Pressure 29.82 in    
Wind  
Wind Speed 10 mph (SW)    
Max Wind Speed 39 mph    
Max Gust Speed 47 mph    
Visibility 10 miles    
Events Rain    
T = Trace of Precipitation, MM = Missing Value Source: NWS Daily Summary

Daily Weather History Graph

Daily Weather History Graph

Search for Another Location

Airport:

Trip Planner

Search our weather history database for the weather conditions in past years. The results will help you decide how hot, cold, wet, or windy it might be!

Date:

Astronomy

Nov. 01, 2012 Rise Set
Actual Time 8:09 AM MDT 6:16 PM MDT
Civil Twilight 7:39 AM MDT 6:47 PM MDT
Nautical Twilight 7:04 AM MDT 7:22 PM MDT
Astronomical Twilight 6:29 AM MDT 7:56 PM MDT
Moon 8:11 PM MDT (11/1) 10:51 AM MDT (11/1)
Length of Visible Light 11h 08m
Length of Day
10h 06m
Waning Gibbous, 92% of the Moon is Illuminated
Nov 1
Waning Gibbous
Nov 6
Last Quarter
Nov 13
New
Nov 20
First Quarter
Nov 28
Full

Hourly Weather History & Observations

Time (MDT) Temp. Windchill Dew Point Humidity Pressure Visibility Wind Dir Wind Speed Gust Speed Precip Events Conditions
12:53 AM 50.0 °F - 30.0 °F 46% 29.79 in 10.0 mi West 5.8 mph - N/A   Clear
1:53 AM 54.0 °F - 28.0 °F 37% 29.76 in 10.0 mi SW 11.5 mph - N/A   Clear
2:53 AM 51.1 °F - 28.0 °F 41% 29.75 in 10.0 mi WSW 8.1 mph - N/A   Clear
3:53 AM 48.9 °F - 28.9 °F 46% 29.75 in 10.0 mi SW 11.5 mph - N/A   Clear
4:53 AM 46.0 °F 43.9 °F 30.0 °F 54% 29.76 in 10.0 mi SW 4.6 mph - N/A   Clear
6:53 AM 48.0 °F - 28.9 °F 48% 29.76 in 10.0 mi SW 9.2 mph - N/A   Overcast
7:53 AM 50.0 °F - 28.0 °F 43% 29.78 in 10.0 mi SSW 11.5 mph - N/A   Overcast
8:53 AM 48.9 °F - 28.9 °F 46% 29.78 in 10.0 mi SSW 5.8 mph - N/A   Overcast
9:53 AM 50.0 °F - 28.9 °F 44% 29.77 in 10.0 mi Calm Calm - N/A   Scattered Clouds
10:53 AM 53.1 °F - 30.0 °F 41% 29.76 in 10.0 mi Variable 3.5 mph - N/A   Mostly Cloudy
11:53 AM 55.9 °F - 30.0 °F 37% 29.76 in 10.0 mi WSW 8.1 mph - N/A   Scattered Clouds
12:53 PM 57.0 °F - 28.9 °F 34% 29.75 in 10.0 mi SW 9.2 mph - N/A   Overcast
1:53 PM 57.0 °F - 28.0 °F 33% 29.74 in 10.0 mi West 18.4 mph 23.0 mph N/A   Mostly Cloudy
2:53 PM 57.0 °F - 28.0 °F 33% 29.75 in 10.0 mi SW 17.3 mph 26.5 mph N/A   Clear
3:53 PM 54.0 °F - 28.0 °F 37% 29.76 in 10.0 mi West 15.0 mph - N/A   Overcast
4:53 PM 54.0 °F - 28.0 °F 37% 29.78 in 10.0 mi SW 12.7 mph - N/A   Overcast
5:53 PM 46.0 °F 38.8 °F 35.1 °F 66% 29.85 in 10.0 mi SSW 18.4 mph 21.9 mph 0.00 in   Overcast
6:40 PM 42.8 °F 34.5 °F 33.8 °F 70% 29.94 in 10.0 mi West 18.4 mph 33.4 mph 0.00 in Rain Light Rain
6:53 PM 41.0 °F 35.8 °F 35.1 °F 79% 29.90 in 10.0 mi WSW 8.1 mph - 0.00 in   Mostly Cloudy
7:53 PM 37.9 °F 31.5 °F 30.9 °F 76% 29.93 in 10.0 mi SSW 9.2 mph - N/A   Clear
8:53 PM 37.9 °F 33.5 °F 28.9 °F 70% 29.95 in 10.0 mi South 5.8 mph - N/A   Clear
9:53 PM 37.9 °F 33.5 °F 28.0 °F 68% 29.96 in 10.0 mi South 5.8 mph - N/A   Partly Cloudy
10:53 PM 39.0 °F 34.0 °F 26.1 °F 60% 29.96 in 10.0 mi South 6.9 mph - N/A   Mostly Cloudy
11:53 PM 39.0 °F 31.0 °F 25.0 °F 57% 29.96 in 10.0 mi SSW 13.8 mph - N/A   Clear